GW0768 Weather Reports


time (UTC)temp
C
wind
direction
speed
KPH
gust
KPH
rain 1hr
cm
rain 24hr
cm
rain mn
cm
humidity
%
barometer
mb
20260507022315 12 68 3.2 4.8 0.00 0.00 0.00 70 1016.9
20260507021316 12 0.0 0.0 0.00 0.00 0.00 69 1016.9
20260507020336 13 0.0 0.0 0.00 0.00 0.00 67 1016.7
20260507015315 13 68 1.6 1.6 0.00 0.00 0.00 66 1016.5
20260507014316 13 68 4.8 6.4 0.00 0.00 0.00 64 1016.3
20260507013317 14 68 4.8 6.4 0.00 0.00 0.00 63 1016.3
20260507012337 15 68 4.8 6.4 0.00 0.00 0.00 62 1016.3
20260507011337 15 45 6.4 9.7 0.00 0.00 0.00 60 1016.3
20260507010338 15 68 6.4 9.7 0.00 0.00 0.00 60 1016.3
20260507005337 15 68 6.4 8.0 0.00 0.00 0.00 59 1016.2
20260507004317 15 68 4.8 8.0 0.00 0.00 0.00 58 1016.2
20260507003358 15 68 3.2 4.8 0.00 0.00 0.00 58 1016.0
20260507002317 16 68 6.4 9.7 0.00 0.00 0.00 57 1015.8
20260507001337 16 68 4.8 8.0 0.00 0.00 0.00 56 1015.8
20260507000317 16 68 8.0 12.9 0.00 0.00 0.00 53 1015.8
20260506235338 16 23 11.3 17.7 0.00 0.00 0.00 54 1015.7
20260506234317 16 68 4.8 8.0 0.00 0.00 0.00 54 1015.5
20260506233317 16 68 9.7 16.1 0.00 0.00 0.00 54 1015.6
20260506232318 17 68 9.7 17.7 0.00 0.00 0.00 52 1015.5
20260506231317 16 45 6.4 8.0 0.00 0.00 0.00 56 1015.6
20260506230338 16 68 12.9 16.1 0.00 0.00 0.00 54 1015.5
20260506225337 16 23 11.3 19.3 0.00 0.00 0.00 55 1015.4
20260506224317 17 23 8.0 14.5 0.00 0.00 0.00 54 1015.3
20260506223316 17 45 8.0 17.7 0.00 0.00 0.00 55 1015.3
20260506222316 16 45 11.3 17.7 0.00 0.00 0.00 54 1015.2
20260506221317 16 45 6.4 9.7 0.00 0.00 0.00 55 1015.1
20260506220317 17 23 9.7 14.5 0.00 0.00 0.00 54 1015.1
20260506215317 16 45 14.5 19.3 0.00 0.00 0.00 56 1015.0
20260506214316 16 23 8.0 12.9 0.00 0.00 0.00 55 1015.0
20260506213316 17 68 14.5 20.9 0.00 0.00 0.00 52 1015.0
20260506212317 17 0 9.7 16.1 0.00 0.00 0.00 55 1015.2
20260506211337 17 0 16.1 27.4 0.00 0.00 0.00 55 1015.2
20260506210317 16 338 16.1 20.9 0.00 0.00 0.00 53 1015.1
20260506205317 17 45 14.5 20.9 0.00 0.00 0.00 53 1015.1
20260506204316 17 23 11.3 14.5 0.00 0.00 0.00 57 1015.1
20260506203316 17 0 12.9 22.5 0.00 0.00 0.00 54 1015.1
20260506202316 16 338 20.9 29.0 0.00 0.00 0.00 55 1015.3
20260506201336 17 23 16.1 19.3 0.00 0.00 0.00 53 1015.3
20260506200316 16 0 16.1 19.3 0.00 0.00 0.00 54 1015.3
20260506195317 17 45 12.9 17.7 0.00 0.00 0.00 53 1015.5
20260506194317 17 68 14.5 20.9 0.00 0.00 0.00 52 1015.5
20260506193316 16 45 14.5 22.5 0.00 0.00 0.00 56 1015.5
20260506192316 16 45 8.0 14.5 0.00 0.00 0.00 53 1015.6
20260506191316 16 68 16.1 20.9 0.00 0.00 0.00 53 1015.7
20260506190336 16 68 11.3 14.5 0.00 0.00 0.00 55 1015.7
20260506185316 16 0 9.7 17.7 0.00 0.00 0.00 57 1015.8
20260506184316 15 68 14.5 19.3 0.00 0.00 0.00 56 1016.1
20260506183316 15 68 17.7 22.5 0.00 0.00 0.00 56 1016.3
20260506182316 14 68 16.1 22.5 0.00 0.00 0.00 58 1016.3
20260506181316 14 45 16.1 19.3 0.00 0.00 0.00 59 1016.6
20260506180316 14 90 16.1 20.9 0.00 0.00 0.00 59 1016.8
20260506175316 13 45 9.7 17.7 0.00 0.00 0.00 61 1016.7
20260506174316 13 68 16.1 25.7 0.00 0.00 0.00 62 1017.1
20260506173316 13 45 12.9 19.3 0.00 0.00 0.00 65 1016.9
20260506172316 13 68 11.3 20.9 0.00 0.00 0.00 65 1016.8
20260506171316 13 68 14.5 22.5 0.00 0.00 0.00 62 1017.1
20260506170336 13 45 8.0 16.1 0.00 0.00 0.00 64 1017.2
20260506165316 13 45 11.3 22.5 0.00 0.00 0.00 64 1017.1
20260506164336 13 45 12.9 17.7 0.00 0.00 0.00 65 1016.9
20260506163316 12 0 9.7 14.5 0.00 0.00 0.00 64 1017.0
20260506162316 13 45 16.1 24.1 0.00 0.00 0.00 63 1017.2
20260506161316 13 45 11.3 20.9 0.00 0.00 0.00 64 1017.1
20260506160315 12 23 12.9 19.3 0.00 0.00 0.00 65 1017.0
20260506155316 12 68 14.5 20.9 0.00 0.00 0.00 67 1016.8
20260506154316 12 68 14.5 20.9 0.00 0.00 0.00 67 1016.8
20260506153336 11 45 19.3 29.0 0.00 0.00 0.00 68 1016.6
20260506152316 11 68 19.3 29.0 0.00 0.00 0.00 69 1016.5
20260506151316 11 68 16.1 20.9 0.00 0.00 0.00 70 1016.4
20260506150315 11 68 14.5 19.3 0.00 0.00 0.00 74 1016.2
20260506145315 10 45 14.5 20.9 0.00 0.00 0.00 74 1015.7
20260506144315 10 45 12.9 19.3 0.00 0.00 0.00 75 1015.3
20260506143315 10 23 14.5 20.9 0.00 0.00 0.00 75 1015.3
20260506142315 10 23 16.1 22.5 0.00 0.00 0.00 76 1015.3
20260506141315 10 45 11.3 16.1 0.00 0.00 0.00 77 1015.4
20260506140315 9 45 12.9 20.9 0.00 0.00 0.00 77 1015.4
20260506135315 9 45 14.5 25.7 0.00 0.00 0.00 77 1015.3
20260506134315 8 23 14.5 22.5 0.00 0.00 0.00 78 1015.3
20260506133316 8 0 16.1 22.5 0.00 0.00 0.00 78 1015.5
20260506132315 8 0 11.3 17.7 0.00 0.00 0.00 78 1015.3
20260506131335 8 23 11.3 19.3 0.00 0.00 0.00 78 1015.3
20260506130315 8 23 14.5 20.9 0.00 0.00 0.00 79 1014.9
20260506125317 8 0 11.3 19.3 0.00 0.00 0.00 78 1014.7
20260506124337 8 45 11.3 16.1 0.00 0.00 0.00 78 1014.5
20260506123318 8 23 16.1 27.4 0.00 0.00 0.00 78 1014.2
20260506122317 8 45 9.7 14.5 0.00 0.00 0.00 77 1014.3
20260506121317 8 23 6.4 14.5 0.00 0.00 0.00 77 1014.2
20260506120317 8 45 9.7 16.1 0.00 0.00 0.00 77 1014.1
20260506115317 8 23 11.3 14.5 0.00 0.00 0.00 77 1014.0
20260506114317 8 23 6.4 9.7 0.00 0.00 0.00 77 1013.8
20260506113318 8 23 11.3 16.1 0.00 0.00 0.00 76 1013.5
20260506112317 8 45 9.7 17.7 0.00 0.00 0.00 76 1013.3
20260506111317 8 0 14.5 20.9 0.00 0.00 0.00 76 1013.8
20260506110317 8 23 11.3 16.1 0.00 0.00 0.00 76 1013.6
20260506105317 8 0 16.1 19.3 0.00 0.00 0.00 76 1013.8
20260506104317 8 0 20.9 29.0 0.00 0.00 0.00 75 1013.5
20260506103318 8 23 9.7 12.9 0.00 0.00 0.00 75 1013.5
20260506102317 8 23 9.7 14.5 0.00 0.00 0.00 75 1013.7
20260506101317 8 0 12.9 16.1 0.00 0.00 0.00 75 1013.9
20260506100357 8 0 11.3 17.7 0.00 0.00 0.00 75 1013.6
20260506095337 8 23 11.3 14.5 0.00 0.00 0.00 75 1013.5
20260506094317 8 0 11.3 16.1 0.00 0.00 0.00 75 1013.3
20260506093317 8 0 11.3 16.1 0.00 0.00 0.00 75 1013.3
20260506092317 8 23 12.9 20.9 0.00 0.00 0.00 75 1013.3
20260506091337 8 23 11.3 17.7 0.00 0.00 0.00 75 1013.2
20260506090336 9 23 8.0 14.5 0.00 0.00 0.00 74 1012.8
20260506085317 9 23 12.9 16.1 0.00 0.00 0.00 74 1012.7
20260506084317 8 0 8.0 12.9 0.00 0.00 0.00 74 1012.7
20260506083317 9 23 6.4 8.0 0.00 0.00 0.00 74 1012.4
20260506082316 8 23 8.0 14.5 0.00 0.00 0.00 73 1011.9
20260506081316 8 23 9.7 14.5 0.00 0.00 0.00 73 1011.6
20260506080336 8 0 8.0 12.9 0.00 0.00 0.00 73 1011.2
20260506073317 9 45 11.3 16.1 0.00 0.00 0.00 71 1010.8
20260506072316 9 23 11.3 16.1 0.00 0.00 0.00 69 1011.0
20260506071316 9 45 14.5 20.9 0.00 0.00 0.00 69 1011.3
20260506070317 9 68 12.9 17.7 0.00 0.00 0.00 68 1011.4
20260506062316 9 45 8.0 14.5 0.00 0.00 0.00 68 1011.3
20260506061316 9 23 8.0 12.9 0.00 0.00 0.00 69 1011.4
20260506060337 9 45 11.3 16.1 0.00 0.00 0.00 69 1011.0
20260506051316 9 45 9.7 14.5 0.00 0.00 0.00 78 1011.5
20260506050316 9 45 6.4 8.0 0.00 0.00 0.00 78 1011.6
20260506044316 9 45 11.3 16.1 0.00 0.00 0.00 78 1012.1
20260506043316 9 45 9.7 17.7 0.00 0.00 0.00 79 1011.9
20260506042336 9 0 9.7 17.7 0.00 0.00 0.00 80 1012.1
20260506041315 9 23 11.3 19.3 0.00 0.00 0.00 81 1011.9
20260506040316 9 23 8.0 16.1 0.00 0.00 0.00 82 1011.8
20260506035315 9 23 8.0 12.9 0.00 0.00 0.00 82 1011.8
20260506034315 9 23 8.0 16.1 0.00 0.00 0.00 83 1011.7
20260506033315 9 23 8.0 12.9 0.00 0.00 0.00 83 1011.6
20260506032315 9 45 8.0 12.9 0.00 0.00 0.00 82 1011.3
20260506031315 9 45 14.5 19.3 0.00 0.00 0.00 82 1010.9
20260506030315 9 23 9.7 22.5 0.00 0.00 0.00 82 1010.9
20260506025335 9 0 14.5 20.9 0.00 0.00 0.00 82 1010.8
20260506024315 9 0 12.9 17.7 0.00 0.00 0.00 82 1010.4
20260506023315 9 23 16.1 24.1 0.00 0.00 0.00 82 1010.1